User: anonymous   Login
Location: Caltech
(34.1382°N, 118.1253°W)
Time: 17:35:46
(UTC-07:00)
Language:

Cosmos 2360 Rocket - Orbit

View from above orbital plane
View from above orbital plane
View from above satellite
View from above satellite

Ground track
Ground track

The orbit data is extracted from the following two-line orbital elements,

1 25407U 98045B   14295.11869211 -.00000205  00000-0 -80277-4 0  5986
2 25407 071.0116 277.7708 0009914 251.9525 178.1598 14.15676039839030
Epoch (UTC): 22 October 2014 02:50:54
Eccentricity: 0.0009914
inclination: 71.0116°
perigee height: 833 km
apogee height: 847 km
right ascension of ascending node: 277.7708°
argument of perigee: 251.9525°
revolutions per day: 14.15676039
mean anomaly at epoch: 178.1598°
orbit number at epoch: 83903

The dashed part of the orbit path shows where the satellite is in the earth's shadow,  

DLR